�������l�o���
Date,Time,MP-1(��Sv/h),MP-2(��Sv/h),MP-3(��Sv/h),MP-4(��Sv/h),MP-5(��Sv/h),MP-6(��Sv/h),MP-7(��Sv/h),MP-8(��Sv/h),����,����(m/s),���J
2017/08/01,00:00,0.964,1.512,1.005,1.800,1.250,0.523,0.950,0.875,�k,7.3,��
2017/08/01,00:10,0.966,1.511,1.004,1.799,1.248,0.521,0.950,0.875,�k,7.2,��
2017/08/01,00:20,0.968,1.511,1.005,1.799,1.247,0.522,0.949,0.876,�k�k��,4.6,��
2017/08/01,00:30,0.965,1.511,1.006,1.799,1.250,0.521,0.949,0.876,�k�k��,6.2,��
2017/08/01,00:40,0.964,1.513,1.008,1.796,1.250,0.522,0.949,0.875,�k�k��,7.2,��
2017/08/01,00:50,0.964,1.509,1.004,1.798,1.249,0.520,0.952,0.875,�k�k��,6.2,��
2017/08/01,01:00,0.963,1.512,1.005,1.800,1.249,0.522,0.950,0.877,�k�k��,6.5,��
2017/08/01,01:10,0.965,1.512,1.004,1.799,1.248,0.521,0.949,0.876,�k,6.1,��
2017/08/01,01:20,0.965,1.511,1.002,1.798,1.250,0.521,0.950,0.878,�k,5.1,��
2017/08/01,01:30,0.963,1.510,1.003,1.796,1.249,0.521,0.949,0.875,�k,2.6,��
2017/08/01,01:40,0.963,1.510,1.004,1.797,1.249,0.519,0.950,0.877,�k�k��,3.6,��
2017/08/01,01:50,0.962,1.509,1.000,1.798,1.249,0.519,0.948,0.876,�k�k��,3.6,��
2017/08/01,02:00,0.963,1.511,1.002,1.798,1.247,0.520,0.948,0.878,�k,2.5,��
2017/08/01,02:10,0.963,1.509,1.003,1.798,1.249,0.519,0.948,0.878,�k,1.7,��
2017/08/01,02:20,0.963,1.511,1.001,1.797,1.250,0.520,0.951,0.877,�k,1.7,��
2017/08/01,02:30,0.961,1.510,1.002,1.798,1.246,0.519,0.948,0.876,�k,2.2,��
2017/08/01,02:40,0.961,1.510,1.004,1.798,1.246,0.519,0.949,0.877,�k�k��,1.7,��
2017/08/01,02:50,0.964,1.509,1.002,1.795,1.248,0.520,0.949,0.878,�k�k��,1.2,��
2017/08/01,03:00,0.963,1.509,1.004,1.797,1.247,0.521,0.950,0.879,�k,1.5,��
2017/08/01,03:10,0.963,1.509,1.002,1.795,1.250,0.519,0.949,0.877,�k�k��,2.8,��
2017/08/01,03:20,0.964,1.511,1.001,1.798,1.246,0.518,0.948,0.877,�k,2.3,��
2017/08/01,03:30,0.964,1.509,1.004,1.796,1.246,0.521,0.949,0.875,�k�k��,1.5,��
2017/08/01,03:40,0.962,1.510,1.003,1.799,1.248,0.520,0.948,0.876,�k�k��,1.7,��
2017/08/01,03:50,0.963,1.507,1.003,1.798,1.249,0.520,0.949,0.878,�k�k��,2.5,��
2017/08/01,04:00,0.964,1.512,1.005,1.797,1.249,0.519,0.949,0.877,�k,2.3,�L
2017/08/01,04:10,0.963,1.509,1.004,1.796,1.246,0.518,0.949,0.878,�k�k��,2.3,�L
2017/08/01,04:20,0.962,1.513,1.002,1.797,1.247,0.519,0.947,0.878,�k,1.9,��
2017/08/01,04:30,0.963,1.510,1.002,1.796,1.250,0.518,0.950,0.876,�k�k��,1.9,�L
2017/08/01,04:40,0.964,1.508,1.003,1.797,1.246,0.519,0.948,0.878,�k�k��,2.2,�L
2017/08/01,04:50,0.963,1.511,1.002,1.799,1.248,0.519,0.948,0.877,�k,1.9,�L
2017/08/01,05:00,0.962,1.510,1.003,1.798,1.247,0.519,0.948,0.876,�k�k��,2.6,�L
2017/08/01,05:10,0.963,1.509,1.002,1.798,1.247,0.519,0.948,0.878,�k�k��,2.5,�L
2017/08/01,05:20,0.963,1.508,1.003,1.799,1.249,0.521,0.948,0.876,�k,2.0,�L
2017/08/01,05:30,0.963,1.509,1.003,1.796,1.249,0.519,0.947,0.875,�k,1.7,�L
2017/08/01,05:40,0.962,1.508,1.002,1.798,1.247,0.518,0.947,0.875,�k�k��,2.3,�L
2017/08/01,05:50,0.962,1.508,1.002,1.798,1.245,0.519,0.947,0.877,�k,2.3,�L
2017/08/01,06:00,0.964,1.511,1.002,1.797,1.244,0.520,0.948,0.876,�k,1.7,�L
2017/08/01,06:10,0.961,1.509,1.001,1.795,1.244,0.518,0.947,0.876,�k,2.0,�L
2017/08/01,06:20,0.961,1.506,1.001,1.796,1.245,0.519,0.946,0.878,�k,2.0,�L
2017/08/01,06:30,0.962,1.507,0.997,1.794,1.244,0.520,0.948,0.875,�k�k��,1.7,�L
2017/08/01,06:40,0.960,1.505,0.998,1.793,1.245,0.519,0.947,0.875,�k,1.4,�L
2017/08/01,06:50,0.961,1.503,0.997,1.795,1.243,0.520,0.948,0.875,�k,2.9,�L
2017/08/01,07:00,0.960,1.501,0.998,1.796,1.242,0.519,0.949,0.876,�k,3.0,�L
2017/08/01,07:10,0.954,1.501,0.996,1.793,1.240,0.519,0.948,0.876,�k,3.2,�L
2017/08/01,07:20,0.959,1.501,0.998,1.793,1.242,0.519,0.948,0.875,�k,4.1,�L
2017/08/01,07:30,0.961,1.500,0.997,1.793,1.242,0.517,0.949,0.875,�k�k��,3.7,�L
2017/08/01,07:40,0.957,1.502,0.998,1.792,1.241,0.516,0.946,0.875,�k�k��,3.1,�L
2017/08/01,07:50,0.956,1.500,0.997,1.793,1.241,0.518,0.947,0.876,�k�k��,2.2,�L
2017/08/01,08:00,0.960,1.504,0.997,1.791,1.239,0.518,0.946,0.874,�k,2.8,�L
2017/08/01,08:10,0.956,1.500,0.998,1.793,1.239,0.516,0.947,0.875,�k�k��,2.9,�L
2017/08/01,08:20,0.957,1.502,0.996,1.794,1.240,0.518,0.944,0.877,�k�k��,2.0,�L
2017/08/01,08:30,0.959,1.503,0.998,1.790,1.242,0.516,0.946,0.876,�k�k��,1.7,�L
2017/08/01,08:40,0.960,1.504,0.999,1.790,1.243,0.516,0.945,0.876,�k,3.0,�L
2017/08/01,08:50,0.959,1.505,0.997,1.794,1.243,0.517,0.947,0.876,�k�k��,3.0,�L
2017/08/01,09:00,0.960,1.502,0.996,1.794,1.239,0.517,0.946,0.874,�k�k��,3.5,�L
2017/08/01,09:10,0.960,1.501,0.997,1.792,1.244,0.516,0.946,0.875,�k�k��,3.4,�L
2017/08/01,09:20,0.961,1.505,0.995,1.790,1.243,0.514,0.944,0.873,�k�k��,5.5,�L
2017/08/01,09:30,0.960,1.503,0.996,1.795,1.242,0.516,0.945,0.873,�k�k��,4.7,�L
2017/08/01,09:40,0.960,1.502,0.997,1.794,1.242,0.516,0.945,0.874,�k�k��,3.9,��
2017/08/01,09:50,0.958,1.501,0.996,1.793,1.243,0.516,0.947,0.873,�k��,5.0,��
2017/08/01,10:00,0.962,1.504,1.000,1.793,1.242,0.515,0.944,0.873,�k��,3.9,�L
2017/08/01,10:10,0.959,1.502,0.998,1.793,1.241,0.515,0.946,0.875,�k��,5.0,�L
2017/08/01,10:20,0.959,1.501,0.999,1.793,1.244,0.515,0.947,0.873,�k��,5.7,��
2017/08/01,10:30,0.959,1.501,0.998,1.794,1.243,0.515,0.945,0.874,���k��,5.4,��
2017/08/01,10:40,0.958,1.500,0.998,1.795,1.241,0.517,0.941,0.874,�k��,6.5,�L
2017/08/01,10:50,0.960,1.501,0.996,1.795,1.239,0.515,0.944,0.875,���k��,6.2,�L
2017/08/01,11:00,0.958,1.500,0.995,1.796,1.238,0.515,0.945,0.874,���k��,5.8,�L
2017/08/01,11:10,0.960,1.502,0.995,1.795,1.240,0.517,0.945,0.873,�k��,5.2,�L
2017/08/01,11:20,0.960,1.502,0.994,1.797,1.240,0.517,0.945,0.872,�k��,4.7,�L
2017/08/01,11:30,0.961,1.502,0.995,1.793,1.243,0.514,0.945,0.875,�k��,4.3,�L
2017/08/01,11:40,0.959,1.502,0.994,1.794,1.244,0.515,0.949,0.874,�k��,4.1,�L
2017/08/01,11:50,0.959,1.501,0.996,1.792,1.241,0.516,0.948,0.874,�k�k��,3.3,�L
2017/08/01,12:00,0.960,1.505,0.995,1.794,1.244,0.517,0.947,0.875,�k�k��,3.0,�L
2017/08/01,12:10,0.958,1.505,0.997,1.794,1.245,0.516,0.949,0.874,�k�k��,2.3,�L
2017/08/01,12:20,0.959,1.502,0.999,1.792,1.244,0.517,0.946,0.875,�k�k��,1.7,�L
2017/08/01,12:30,0.957,1.508,0.999,1.797,1.246,0.516,0.947,0.875,�k�k��,1.5,��
2017/08/01,12:40,0.958,1.503,0.998,1.794,1.243,0.516,0.949,0.877,�k�k��,1.2,�L
2017/08/01,12:50,0.959,1.507,1.001,1.796,1.242,0.517,0.948,0.875,�k,0.6,�L
2017/08/01,13:00,0.960,1.509,0.998,1.795,1.245,0.518,0.949,0.876,�k�k��,0.9,�L
2017/08/01,13:10,0.961,1.507,0.998,1.798,1.243,0.518,0.947,0.875,�k�k��,1.5,�L
2017/08/01,13:20,0.961,1.503,1.000,1.797,1.242,0.518,0.948,0.876,�k��,1.1,�L
2017/08/01,13:30,0.962,1.503,0.998,1.795,1.242,0.518,0.948,0.875,�k��,1.7,�L
2017/08/01,13:40,0.960,1.506,1.000,1.795,1.242,0.518,0.948,0.875,�k�k��,2.0,�L
2017/08/01,13:50,0.960,1.503,0.999,1.796,1.242,0.519,0.945,0.875,�k��,2.2,�L
2017/08/01,14:00,0.958,1.502,1.001,1.799,1.243,0.519,0.947,0.874,�k�k��,2.3,�L
2017/08/01,14:10,0.960,1.505,1.001,1.796,1.240,0.518,0.947,0.874,���k��,2.2,�L
2017/08/01,14:20,0.961,1.503,1.000,1.796,1.241,0.517,0.947,0.876,�k��,2.0,�L
2017/08/01,14:30,0.959,1.505,1.002,1.797,1.238,0.519,0.946,0.875,�k�k��,2.6,�L
2017/08/01,14:40,0.958,1.503,1.002,1.797,1.238,0.518,0.947,0.875,�k��,2.3,�L
2017/08/01,14:50,0.958,1.504,1.004,1.795,1.242,0.517,0.946,0.875,�k�k��,2.3,�L
2017/08/01,15:00,0.959,1.505,1.000,1.795,1.241,0.517,0.947,0.875,�k�k��,2.0,�L
2017/08/01,15:10,0.959,1.506,0.999,1.795,1.241,0.518,0.949,0.875,�k�k��,1.9,�L
2017/08/01,15:20,0.960,1.505,1.002,1.795,1.241,0.517,0.945,0.875,���k��,2.5,�L
2017/08/01,15:30,0.958,1.506,1.000,1.793,1.239,0.517,0.945,0.875,���k��,2.9,�L
2017/08/01,15:40,0.958,1.503,1.001,1.791,1.238,0.515,0.944,0.873,���k��,3.0,�L
2017/08/01,15:50,0.957,1.503,0.996,1.796,1.234,0.515,0.944,0.875,���k��,3.6,�L
2017/08/01,16:00,0.956,1.500,0.997,1.789,1.231,0.515,0.944,0.874,���k��,4.5,�L
2017/08/01,16:10,0.953,1.494,0.993,1.789,1.230,0.513,0.943,0.874,�k��,3.8,�L
2017/08/01,16:20,0.952,1.492,0.993,1.786,1.229,0.513,0.943,0.873,���k��,3.2,�L
2017/08/01,16:30,0.953,1.493,0.992,1.785,1.227,0.514,0.943,0.873,���k��,3.2,�L
2017/08/01,16:40,0.950,1.491,0.991,1.784,1.227,0.514,0.941,0.871,���k��,2.3,�L
2017/08/01,16:50,0.950,1.488,0.989,1.783,1.227,0.514,0.942,0.874,�k�k��,2.3,�L
2017/08/01,17:00,0.950,1.483,0.992,1.783,1.227,0.511,0.939,0.872,�k�k��,3.1,�L
2017/08/01,17:10,0.948,1.486,0.986,1.778,1.223,0.514,0.939,0.871,�k��,2.8,�L
2017/08/01,17:20,0.948,1.484,0.987,1.782,1.226,0.513,0.939,0.870,�k�k��,3.5,�L
2017/08/01,17:30,0.950,1.483,0.986,1.781,1.223,0.512,0.938,0.870,�k��,3.1,�L
2017/08/01,17:40,0.948,1.485,0.985,1.779,1.224,0.513,0.940,0.868,�k�k��,2.6,�L
2017/08/01,17:50,0.950,1.484,0.988,1.782,1.224,0.513,0.939,0.865,�k�k��,3.3,�L
2017/08/01,18:00,0.949,1.484,0.985,1.779,1.222,0.513,0.940,0.869,�k��,3.4,�L
2017/08/01,18:10,0.950,1.484,0.987,1.778,1.222,0.512,0.938,0.867,�k��,3.9,��
2017/08/01,18:20,0.949,1.481,0.989,1.778,1.222,0.513,0.937,0.869,�k��,4.0,��
2017/08/01,18:30,0.948,1.485,0.987,1.778,1.220,0.511,0.939,0.870,�k��,3.7,��
2017/08/01,18:40,0.951,1.488,0.988,1.779,1.223,0.513,0.940,0.869,�k��,3.5,�L
2017/08/01,18:50,0.950,1.485,0.989,1.782,1.222,0.513,0.940,0.871,�k�k��,3.5,��
2017/08/01,19:00,0.948,1.486,0.987,1.777,1.223,0.514,0.940,0.870,�k�k��,4.7,�L
2017/08/01,19:10,0.949,1.486,0.987,1.778,1.222,0.512,0.940,0.869,�k�k��,4.2,��
2017/08/01,19:20,0.950,1.489,0.987,1.780,1.222,0.513,0.940,0.871,�k��,3.6,�L
2017/08/01,19:30,0.949,1.487,0.987,1.779,1.225,0.514,0.939,0.871,�k�k��,4.0,��
2017/08/01,19:40,0.947,1.485,0.989,1.778,1.224,0.512,0.939,0.870,�k�k��,3.6,��
2017/08/01,19:50,0.947,1.485,0.988,1.781,1.225,0.512,0.942,0.870,�k�k��,3.8,��
2017/08/01,20:00,0.946,1.487,0.988,1.781,1.226,0.515,0.942,0.869,�k�k��,3.4,��
2017/08/01,20:10,0.950,1.486,0.989,1.781,1.225,0.514,0.940,0.871,�k�k��,3.3,��
2017/08/01,20:20,0.951,1.487,0.991,1.777,1.225,0.514,0.940,0.871,�k,3.7,��
2017/08/01,20:30,0.949,1.487,0.987,1.782,1.228,0.512,0.940,0.871,�k,3.9,��
2017/08/01,20:40,0.947,1.488,0.989,1.781,1.223,0.513,0.942,0.871,�k�k��,3.8,��
2017/08/01,20:50,0.950,1.490,0.986,1.781,1.224,0.512,0.940,0.871,�k,3.7,��
2017/08/01,21:00,0.952,1.487,0.989,1.779,1.228,0.513,0.940,0.872,�k�k��,2.9,��
2017/08/01,21:10,0.952,1.487,0.988,1.781,1.227,0.512,0.941,0.871,�k�k��,3.1,��
2017/08/01,21:20,0.952,1.488,0.987,1.781,1.228,0.515,0.941,0.872,�k�k��,2.5,��
2017/08/01,21:30,0.954,1.488,0.988,1.780,1.228,0.513,0.939,0.869,�k,3.1,��
2017/08/01,21:40,0.953,1.489,0.989,1.783,1.228,0.514,0.940,0.870,�k�k��,3.6,��
2017/08/01,21:50,0.951,1.488,0.989,1.782,1.227,0.514,0.940,0.872,�k,3.5,��
2017/08/01,22:00,0.954,1.487,0.991,1.782,1.226,0.514,0.941,0.871,�k�k��,4.2,��
2017/08/01,22:10,0.953,1.489,0.988,1.782,1.225,0.514,0.942,0.872,�k�k��,4.3,��
2017/08/01,22:20,0.952,1.490,0.990,1.781,1.229,0.515,0.943,0.870,�k�k��,4.5,��
2017/08/01,22:30,0.954,1.490,0.994,1.781,1.226,0.515,0.940,0.873,�k�k��,3.9,��
2017/08/01,22:40,0.953,1.489,0.991,1.783,1.227,0.512,0.943,0.871,�k,3.5,��
2017/08/01,22:50,0.953,1.488,0.991,1.783,1.225,0.514,0.941,0.872,�k�k��,3.1,��
2017/08/01,23:00,0.954,1.489,0.992,1.781,1.227,0.514,0.940,0.872,�k�k��,3.2,��
2017/08/01,23:10,0.953,1.491,0.992,1.780,1.228,0.514,0.942,0.871,�k�k��,3.2,��
2017/08/01,23:20,0.954,1.489,0.989,1.782,1.229,0.513,0.941,0.870,�k�k��,3.7,��
2017/08/01,23:30,0.954,1.489,0.990,1.781,1.227,0.513,0.940,0.871,�k,3.9,��
2017/08/01,23:40,0.953,1.493,0.991,1.782,1.231,0.514,0.941,0.871,�k,3.7,�L
2017/08/01,23:50,0.952,1.488,0.991,1.782,1.227,0.515,0.941,0.871,�k�k��,4.3,��
